Richlands, NC

10:37 AM EST on December 05, 2016 (GMT -0500)
Ellis

Weather History for KOAJ - September, 2013

Change the Weather History Date:

Saturday, September 7, 2013

  Actual Average Record
Temperature  
Mean Temperature 72 °F -  
Max Temperature 82 °F 80 °F 93 °F (2008)
Min Temperature 62 °F 62 °F 35 °F (2004)
Cooling Degree Days 7    
Growing Degree Days 22 (Base 50)    
Moisture  
Dew Point 59 °F    
Average Humidity 68    
Maximum Humidity 94    
Minimum Humidity 39    
Precipitation  
Precipitation 0.00 in - - ()
Sea Level Pressure  
Sea Level Pressure 30.06 in    
Wind  
Wind Speed 6 mph (NNE)    
Max Wind Speed 12 mph    
Max Gust Speed 16 mph    
Visibility 10 miles    
Events      
Averages and records for this station are not official NWS values.
T = Trace of Precipitation, MM = Missing Value Source: NWS Daily Summary

Daily Weather History Graph

Daily Weather History Graph

Search for Another Location

Airport or City:

Trip Planner

Search our weather history database for the weather conditions in past years. The results will help you decide how hot, cold, wet, or windy it might be!

Date:

Astronomy

Sep. 07, 2013 Rise Set
Actual Time 6:47 AM EDT 7:28 PM EDT
Civil Twilight 6:22 AM EDT 7:53 PM EDT
Nautical Twilight 5:52 AM EDT 8:23 PM EDT
Astronomical Twilight 5:21 AM EDT 8:54 PM EDT
Moon 8:52 AM EDT (9/7) 8:34 PM EDT (9/7)
Length of Visible Light 13h 31m
Length of Day
12h 40m
Waxing Crescent, 5% of the Moon is Illuminated
Sep 7
Waxing Crescent
Sep 12
First Quarter
Sep 19
Full
Sep 26
Last Quarter
Oct 4
New

Hourly Weather History & Observations

Time (EDT) Temp. Heat Index Dew Point Humidity Pressure Visibility Wind Dir Wind Speed Gust Speed Precip Events Conditions
12:15 AM 69.8 °F - 62.6 °F 78% 30.10 in 10.0 mi NNE 6.9 mph - N/A   Mostly Cloudy
12:35 AM 69.8 °F - 62.6 °F 78% 30.10 in 10.0 mi NNE 6.9 mph - N/A   Mostly Cloudy
12:55 AM 68.0 °F - 62.6 °F 83% 30.11 in 10.0 mi NNE 6.9 mph - N/A   Partly Cloudy
1:15 AM 66.2 °F - 60.8 °F 83% 30.10 in 10.0 mi NNE 6.9 mph - N/A   Clear
1:35 AM 66.2 °F - 60.8 °F 83% 30.10 in 10.0 mi NNE 6.9 mph - N/A   Clear
1:55 AM 66.2 °F - 60.8 °F 83% 30.09 in 10.0 mi NNE 5.8 mph - N/A   Clear
2:15 AM 64.4 °F - 60.8 °F 88% 30.09 in 10.0 mi NNE 5.8 mph - N/A   Clear
2:35 AM 64.4 °F - 60.8 °F 88% 30.09 in 10.0 mi NNE 5.8 mph - N/A   Clear
2:55 AM 64.4 °F - 59.0 °F 83% 30.09 in 10.0 mi NNE 6.9 mph - N/A   Clear
3:15 AM 64.4 °F - 59.0 °F 83% 30.08 in 10.0 mi NNE 5.8 mph - N/A   Clear
3:35 AM 62.6 °F - 59.0 °F 88% 30.08 in 10.0 mi NNE 5.8 mph - N/A   Partly Cloudy
3:55 AM 64.4 °F - 59.0 °F 83% 30.09 in 10.0 mi North 3.5 mph - N/A   Mostly Cloudy
4:15 AM 64.4 °F - 59.0 °F 83% 30.09 in 10.0 mi North 4.6 mph - N/A   Partly Cloudy
4:35 AM 62.6 °F - 57.2 °F 82% 30.09 in 10.0 mi North 5.8 mph - N/A   Clear
4:55 AM 62.6 °F - 57.2 °F 82% 30.09 in 10.0 mi North 4.6 mph - N/A   Clear
5:15 AM 62.6 °F - 57.2 °F 82% 30.09 in 10.0 mi North 5.8 mph - N/A   Clear
5:35 AM 62.6 °F - 57.2 °F 82% 30.09 in 10.0 mi North 5.8 mph - N/A   Clear
5:55 AM 62.6 °F - 57.2 °F 82% 30.09 in 10.0 mi NNE 4.6 mph - N/A   Clear
6:15 AM 62.6 °F - 57.2 °F 82% 30.10 in 10.0 mi North 4.6 mph - N/A   Clear
6:35 AM 62.6 °F - 57.2 °F 82% 30.10 in 10.0 mi North 3.5 mph - N/A   Clear
6:55 AM 62.6 °F - 57.2 °F 82% 30.10 in 10.0 mi North 3.5 mph - N/A   Clear
7:15 AM 62.6 °F - 57.2 °F 82% 30.11 in 10.0 mi North 4.6 mph - N/A   Clear
7:35 AM 62.6 °F - 57.2 °F 82% 30.11 in 10.0 mi North 4.6 mph - N/A   Clear
7:55 AM 64.4 °F - 59.0 °F 83% 30.11 in 10.0 mi NNE 5.8 mph - N/A   Clear
8:15 AM 66.2 °F - 59.0 °F 78% 30.11 in 10.0 mi NNE 6.9 mph - N/A   Clear
8:35 AM 68.0 °F - 60.8 °F 78% 30.11 in 10.0 mi NNE 8.1 mph - N/A   Clear
8:55 AM 69.8 °F - 60.8 °F 73% 30.11 in 10.0 mi NNE 8.1 mph - N/A   Clear
9:15 AM 71.6 °F - 60.8 °F 69% 30.11 in 10.0 mi NE 9.2 mph - N/A   Clear
9:35 AM 73.4 °F - 59.0 °F 61% 30.11 in 10.0 mi NE 9.2 mph - N/A   Clear
9:55 AM 75.2 °F - 57.2 °F 53% 30.11 in 10.0 mi NNE 10.4 mph - N/A   Clear
10:15 AM 75.2 °F - 59.0 °F 57% 30.12 in 10.0 mi NE 11.5 mph - N/A   Clear
10:35 AM 75.2 °F - 59.0 °F 57% 30.11 in 10.0 mi NNE 9.2 mph - N/A   Clear
10:55 AM 77.0 °F - 60.8 °F 57% 30.11 in 10.0 mi NE 9.2 mph - N/A   Clear
11:15 AM 78.8 °F - 57.2 °F 47% 30.11 in 10.0 mi North 6.9 mph 16.1 mph N/A   Clear
11:35 AM 78.8 °F - 57.2 °F 47% 30.11 in 10.0 mi North 8.1 mph - N/A   Clear
11:55 AM 78.8 °F - 55.4 °F 44% 30.10 in 10.0 mi NE 8.1 mph - N/A   Clear
12:15 PM 78.8 °F - 57.2 °F 47% 30.09 in 10.0 mi NNE 8.1 mph - N/A   Clear
12:35 PM 78.8 °F - 55.4 °F 44% 30.09 in 10.0 mi North 3.5 mph - N/A   Clear
12:55 PM 80.6 °F 80.8 °F 57.2 °F 45% 30.08 in 10.0 mi NE 11.5 mph - N/A   Clear
1:15 PM 80.6 °F 80.8 °F 57.2 °F 45% 30.08 in 10.0 mi ENE 10.4 mph - N/A   Clear
1:35 PM 80.6 °F 80.8 °F 57.2 °F 45% 30.07 in 10.0 mi North 6.9 mph - N/A   Clear
1:55 PM 80.6 °F 80.5 °F 55.4 °F 42% 30.06 in 10.0 mi SE 3.5 mph - N/A   Clear
2:15 PM 80.6 °F 80.8 °F 57.2 °F 45% 30.05 in 10.0 mi North 4.6 mph - N/A   Clear
2:35 PM 82.4 °F 82.0 °F 57.2 °F 42% 30.05 in 10.0 mi East 6.9 mph - N/A   Clear
2:55 PM 80.6 °F 80.8 °F 57.2 °F 45% 30.04 in 10.0 mi North 8.1 mph - N/A   Clear
3:15 PM 82.4 °F 82.0 °F 57.2 °F 42% 30.03 in 10.0 mi North 8.1 mph - N/A   Clear
3:35 PM 82.4 °F 81.7 °F 55.4 °F 39% 30.03 in 10.0 mi NNW 4.6 mph - N/A   Clear
3:55 PM 82.4 °F 82.0 °F 57.2 °F 42% 30.02 in 10.0 mi ENE 5.8 mph - N/A   Clear
4:15 PM 82.4 °F 82.5 °F 59.0 °F 45% 30.02 in 10.0 mi North 10.4 mph - N/A   Clear
4:35 PM 82.4 °F 82.0 °F 57.2 °F 42% 30.01 in 10.0 mi Calm Calm - N/A   Clear
4:55 PM 82.4 °F 82.5 °F 59.0 °F 45% 30.01 in 10.0 mi North 4.6 mph - N/A   Clear
5:15 PM 80.6 °F 80.8 °F 57.2 °F 45% 30.01 in 10.0 mi Calm Calm - N/A   Clear
5:35 PM 80.6 °F 80.8 °F 57.2 °F 45% 30.01 in 10.0 mi NNW 5.8 mph - N/A   Clear
5:55 PM 80.6 °F 81.1 °F 59.0 °F 48% 30.01 in 10.0 mi Calm Calm - N/A   Clear
6:15 PM 80.6 °F 81.5 °F 60.8 °F 51% 30.00 in 10.0 mi North 4.6 mph - N/A   Clear
6:35 PM 78.8 °F - 62.6 °F 57% 30.00 in 10.0 mi North 3.5 mph - N/A   Clear
6:55 PM 75.2 °F - 62.6 °F 65% 30.00 in 10.0 mi Calm Calm - N/A   Clear
7:15 PM 73.4 °F - 62.6 °F 69% 30.00 in 10.0 mi Calm Calm - N/A   Clear
7:35 PM 71.6 °F - 62.6 °F 73% 30.00 in 10.0 mi Calm Calm - N/A   Clear
7:55 PM 71.6 °F - 62.6 °F 73% 30.00 in 10.0 mi Calm Calm - N/A   Clear
8:15 PM 71.6 °F - 62.6 °F 73% 30.01 in 10.0 mi Calm Calm - N/A   Clear
8:35 PM 68.0 °F - 64.4 °F 88% 30.01 in 10.0 mi Calm Calm - N/A   Clear
8:55 PM 68.0 °F - 62.6 °F 83% 30.01 in 10.0 mi Calm Calm - N/A   Clear
9:15 PM 66.2 °F - 62.6 °F 88% 30.02 in 10.0 mi Calm Calm - N/A   Clear
9:35 PM 66.2 °F - 62.6 °F 88% 30.02 in 10.0 mi Calm Calm - N/A   Clear
9:55 PM 66.2 °F - 62.6 °F 88% 30.02 in 10.0 mi Calm Calm - N/A   Clear
10:15 PM 66.2 °F - 60.8 °F 83% 30.02 in 10.0 mi Calm Calm - N/A   Clear
10:35 PM 64.4 °F - 60.8 °F 88% 30.02 in 10.0 mi Calm Calm - N/A   Clear
10:55 PM 64.4 °F - 60.8 °F 88% 30.02 in 10.0 mi Calm Calm - N/A   Clear
11:15 PM 64.4 °F - 60.8 °F 88% 30.02 in 10.0 mi Calm Calm - N/A   Clear
11:35 PM 64.4 °F - 60.8 °F 88% 30.01 in 10.0 mi Calm Calm - N/A   Clear
11:55 PM 62.6 °F - 60.8 °F 94% 30.01 in 10.0 mi Calm Calm - N/A   Clear